sat.trackr.live / text

‹ back to catalog

SPHINX/FRAZIER

NORAD 63232 · 2025-052Y

PAYLOAD ACTIVE UNKNOWN

§ Identity

Operator
Country
US
Launch date
2025-03-15
Launch site
AFWTR
Launch vehicle
Mass (kg)
RCS (m²)

External: N2YO · Heavens-Above · Gunter

§ Orbital elements

Epoch: 2026-05-25T03:37:22.218240Z

Period
94.51 min
Inclination
97.3979°
Eccentricity
0.0004511
Mean motion
15.23637287 rev/d
Perigee alt
491.8 km
Apogee alt
498.0 km
Semi-major
6,873.0 km
B*
2.3486e-4
RAAN
38.4765°
Arg perigee
215.3620°
Mean anomaly
144.7319°
Rev number
6,636

§ Raw data

SPHINX/FRAZIER1 63232U 25052Y   26145.15095160  .00005558  00000+0  23486-3 0  99932 63232  97.3979  38.4765 0004511 215.3620 144.7319 15.23637287 66369

JSON: /api/v1/satellites/63232 · /tle

For live sub-satellite position, see the globe view (requires WebGL).

§ Visibility from observer

Set your observer location to see the next 7 days of passes ≥ 10°. The values pass through the URL so the page stays shareable.

No JS? Fill the form by hand. The geolocation button needs JavaScript.

§ Radio — SatNOGS DB

ModeDescriptionDownlinkUplink
GFSK Mode U - GFSK38k4 401.100 MHz
GFSK Mode U - GFSK38k4 - Transmitter 400.500 MHz

2 transmitters · refreshed weekly from db.satnogs.org